Flag for Canada Weather past 2 weeks in Campbell River, British Columbia, Canada

Now
52 °F

Low clouds.


Feels Like: 47 °F
Forecast: 47 / 54 °F
Wind: 13 mph from Southeast

Location: Campbell River Airport

Current Time: Mar 30, 2015 at 10:42:06 AM

Latest Report: Mar 30, 2015 at 10:00 AM


Visibility: 8 mi

Pressure: 29.90 "Hg

Humidity: 94%

Dew point: 50 °F

Location of Campbell RiverLocation

Historic Weather in Campbell River — Graph

°F

Campbell River temperature yesterday

Maximum temperature yesterday: 54 °F (at 2:00 PM)
Minimum temperature yesterday: 46 °F (at 6:00 AM)
Average temperature yesterday: 50 °F

Past Weeks' High & Low Weather Summary

 TemperatureHumidityPressure
High59 °F (Mar 27, 12:00 PM)100% (Mar 16, 7:00 AM)30.31 "Hg (Mar 16, 7:00 AM)
Low27 °F (Mar 16, 6:00 AM)47% (Mar 17, 4:00 PM)29.72 "Hg (Mar 20, 6:00 PM)
Average47 °F86%30.04 "Hg
* Reported Mar 15 9:00 AM — Mar 30 9:00 AM, Campbell River, Weather by CustomWeather, © 2015

Note: Actual official high and low records may vary slightly from our data, if they occured in-between our weather recording intervals... More about our weather records

Advertising

Campbell River weather history for previous 24 hours

 ConditionsComfort  
Time TempWeatherWind HumidityBarometerVisibility
9:00 AM
Mon, Mar 30
50 °FFog.14 mph94%29.91 "Hg4 mi
8:47 AM50 °FFog.14 mph94%29.91 "Hg3 mi
8:00 AM50 °FLight rain. Fog.18 mph94%29.92 "Hg2 mi
7:00 AM48 °FLight rain. Fog.15 mph100%29.93 "Hg2 mi
6:00 AM48 °FLight rain. Fog.13 mph100%29.94 "Hg2 mi
9:00 PM
Sun, Mar 29
48 °FDrizzle. Mostly cloudy.7 mph100%30.12 "Hg4 mi
8:00 PM50 °FMore clouds than sun.6 mph88%30.11 "Hg12 mi
7:00 PM50 °FLow clouds.6 mph88%30.13 "Hg12 mi
6:00 PM50 °FLow clouds.7 mph88%30.14 "Hg12 mi
5:00 PM50 °FCloudy.6 mph94%30.15 "Hg12 mi
4:00 PM52 °FPartly sunny.12 mph88%30.15 "Hg12 mi
3:00 PM52 °FPartly sunny.10 mph88%30.15 "Hg12 mi
2:49 PM54 °FBroken clouds.10 mph82%30.15 "Hg12 mi
2:00 PM54 °FPartly sunny.14 mph82%30.15 "Hg12 mi
1:00 PM52 °FMostly cloudy.9 mph88%30.15 "Hg10 mi
12:00 PM52 °FMore clouds than sun.6 mph88%30.14 "Hg8 mi
11:55 AM52 °FMore clouds than sun.6 mph88%30.14 "Hg8 mi
11:00 AM50 °FFog.5 mph94%30.13 "Hg3 mi
10:52 AM48 °FFog.5 mph94%30.13 "Hg3 mi
10:00 AM48 °FLight rain. Fog.8 mph94%30.11 "Hg3 mi
Weather by CustomWeather, © 2015

See weather overviewHow to use our weather pages